Wind_Speed
19 19 19 20 20 20 20 20 20 20 20 20 20 20 21 21 22 22 22 23 23 24 24 24 24 24 24 25 25 25 24 25 25 26 26 25 25 26
21 21 21 22 22 22 22 22 22 23 22 22 23 23 24 24 25 24 25 25 25 25 26 26 25 26 26 26 27 27 26 26 27 27 27 27 26 26
23 23 23 23 23 23 23 23 23 24 23 24 25 25 25 26 26 26 27 27 27 27 27 28 28 28 29 28 28 28 28 28 28 28 28 28 27 27
24 24 24 24 24 24 24 24 25 25 25 25 25 26 26 27 27 28 28 29 30 30 30 30 30 30 30 29 29 30 30 29 29 29 29 29 28 28
25 25 24 24 24 24 25 25 26 26 26 26 26 26 27 28 29 29 30 31 31 31 31 31 31 31 30 30 30 30 30 30 30 30 30 29 29 29
25 25 25 25 25 25 25 26 27 27 27 27 27 27 27 28 29 29 31 31 31 31 32 31 31 31 31 31 31 31 31 31 31 31 31 30 29 29
27 26 25 25 25 26 26 27 27 27 28 28 28 27 28 28 29 29 30 31 31 31 31 31 31 32 31 31 31 31 32 32 32 31 31 32 31 30
28 28 27 27 27 27 27 27 28 28 28 28 28 28 27 28 29 30 30 30 31 31 31 31 31 31 32 32 32 32 32 32 32 32 32 32 32 31
28 27 27 27 27 27 28 29 28 28 28 28 28 28 28 28 28 29 29 30 30 31 31 31 31 31 32 32 32 32 32 32 32 32 33 33 32 32
28 28 29 29 29 28 27 27 27 28 28 28 28 28 28 28 28 28 28 29 29 30 31 30 30 31 31 32 32 32 32 32 32 32 32 32 32 32
29 30 29 29 29 28 28 28 28 28 28 28 28 28 28 28 28 28 28 28 28 29 31 31 30 31 31 31 31 31 32 31 31 31 31 32 32 32
31 31 30 30 30 29 29 29 29 29 30 30 29 29 29 29 29 29 29 29 29 29 30 31 31 31 31 32 32 32 32 32 31 31 31 32 32 32
30 31 30 30 31 31 31 30 30 31 30 30 30 30 30 29 30 30 30 29 29 29 30 31 31 31 32 31 31 31 31 31 32 31 31 32 31 31
31 30 31 31 31 31 31 31 31 32 32 32 31 31 31 30 30 30 30 30 29 29 29 30 30 31 31 31 31 31 31 30 30 30 30 31 31 31
31 31 31 31 31 31 31 31 32 32 32 32 31 31 31 31 31 30 30 30 30 29 29 30 30 30 30 30 31 31 31 30 30 29 29 30 30 30
32 31 31 31 31 31 32 32 32 32 32 31 31 31 30 30 30 30 30 30 30 29 30 30 30 30 30 30 30 30 30 30 29 29 28 28 28 28
32 32 32 31 31 32 32 32 32 32 32 32 31 30 30 30 30 30 29 29 29 29 29 29 28 29 29 29 29 29 30 30 30 29 29 28 28 28
32 31 31 31 31 31 31 31 31 32 32 31 30 30 29 29 28 28 28 28 28 28 27 27 26 27 27 27 28 28 29 28 29 29 29 28 28 28
30 30 30 30 29 30 30 30 30 30 30 29 29 29 29 29 28 27 27 27 27 27 27 27 26 26 25 25 25 26 26 28 29 29 28 28 28 28
31 31 31 30 30 29 29 29 29 29 28 28 28 28 28 28 28 28 27 27 26 26 26 26 26 25 25 25 25 26 26 26 27 27 27 27 27 27
31 31 31 30 29 29 29 28 28 28 28 28 28 28 28 28 27 27 26 26 26 26 26 25 25 25 25 24 24 24 25 25 25 26 26 26 26 26
30 30 29 28 28 29 29 28 28 28 27 28 28 27 26 26 25 25 24 24 24 24 24 25 24 24 24 23 23 24 23 23 24 25 25 25 25 25
29 29 28 28 28 29 29 28 28 27 27 27 26 25 24 24 23 23 23 23 23 22 23 23 23 23 22 22 22 22 22 23 23 24 24 24 24 25
Wind_Direction
300 298 298 298 296 296 294 291 288 287 286 282 277 273 272 271 271 271 272 272 272 268 267 266 265 261 262 263 263 262 261 261 260 260 259 261 261 259
299 297 297 297 294 294 294 291 289 287 283 280 278 274 273 272 271 271 272 272 272 270 268 267 265 263 262 262 262 262 262 261 261 260 259 259 258 259
297 295 296 295 294 293 293 291 290 289 284 282 279 273 273 273 271 272 272 272 272 270 269 266 265 265 263 262 262 262 262 262 262 262 260 259 257 258
295 293 293 293 294 294 293 291 290 288 285 284 279 277 275 274 273 273 273 273 272 271 270 268 265 264 263 263 262 263 262 261 261 262 261 260 258 257
296 294 292 291 291 292 292 291 290 290 287 285 281 278 276 275 274 273 273 274 274 272 270 268 265 263 262 262 262 263 262 261 261 260 261 260 259 257
296 295 293 292 291 292 293 292 291 290 289 287 284 282 280 277 275 274 274 275 275 274 271 268 265 264 263 262 262 262 262 262 261 261 259 259 258 258
294 294 294 292 292 293 293 294 293 290 291 289 286 284 281 279 278 278 277 275 275 273 271 270 268 266 263 262 262 263 263 263 262 261 259 258 257 257
291 292 293 293 293 292 293 294 294 292 290 289 287 285 283 281 280 279 278 275 273 272 270 269 268 267 263 261 262 263 264 265 263 261 259 258 257 256
291 292 292 294 294 295 293 293 293 292 291 288 286 286 284 283 283 282 279 277 274 271 270 271 270 268 265 265 265 265 264 265 264 262 260 258 257 256
290 291 292 293 295 294 293 293 294 293 293 290 287 286 286 285 285 284 280 278 275 274 271 270 269 268 266 265 265 265 264 263 262 261 260 258 257 257
289 290 291 293 293 291 292 293 293 293 292 291 290 289 288 287 286 284 281 279 277 276 274 271 269 268 267 267 265 264 264 263 262 260 259 258 257 256
288 289 290 291 291 290 291 292 292 292 292 293 291 288 288 287 286 284 281 280 279 277 274 272 269 268 267 266 265 263 263 262 261 259 259 258 257 257
286 287 288 289 289 289 290 291 291 291 291 291 290 289 288 286 285 284 283 281 279 277 275 273 271 269 267 265 265 263 262 262 260 260 259 258 257 257
285 285 286 287 288 289 289 289 289 290 290 290 290 290 288 286 284 283 282 281 281 279 276 274 272 270 267 265 264 263 261 261 260 259 259 258 259 258
287 286 286 286 286 288 289 290 290 290 289 289 289 288 287 285 284 282 281 281 281 279 277 275 273 271 268 265 263 262 261 260 260 259 260 260 259 257
287 286 286 286 286 286 288 289 290 289 289 289 289 287 285 284 284 283 281 279 279 279 278 277 274 271 269 266 264 261 260 259 258 258 258 259 258 257
288 286 286 285 285 287 288 288 289 289 289 288 288 288 286 285 284 283 281 279 279 277 276 276 274 271 268 266 264 262 260 258 258 257 257 259 259 259
287 289 288 287 286 287 287 288 289 289 289 288 288 288 287 285 284 284 282 280 280 278 276 276 273 270 268 266 264 263 258 256 256 256 257 257 258 259
289 289 290 289 289 290 289 290 290 290 289 288 287 287 287 285 283 283 283 281 279 278 277 276 273 270 267 265 264 263 260 257 256 256 257 257 257 259
290 291 290 290 289 289 290 291 292 292 291 290 289 287 286 284 282 283 283 282 281 278 276 275 273 269 265 264 264 263 262 260 257 256 256 257 256 258
288 290 289 288 287 287 288 290 291 291 290 289 288 287 285 283 282 282 282 282 281 278 275 273 271 268 265 265 265 263 262 259 256 255 256 257 257 258
288 289 289 288 288 288 288 289 290 290 288 287 287 286 284 283 283 283 283 283 282 280 276 273 270 268 266 266 264 263 261 260 257 257 257 257 257 257
288 290 290 289 288 288 288 289 289 288 287 287 286 284 285 284 283 282 283 284 283 281 278 273 269 265 264 263 262 261 261 260 258 257 256 256 256 256
Height
5849 5847 5846 5844 5842 5841 5839 5838 5837 5836 5835 5833 5831 5830 5829 5828 5828 5827 5826 5826 5824 5824 5823 5823 5823 5823 5823 5824 5824 5824 5824 5824 5824 5824 5824 5824 5824 5824
5844 5842 5840 5838 5836 5835 5833 5831 5830 5829 5828 5826 5825 5824 5823 5822 5821 5820 5820 5819 5818 5817 5816 5816 5815 5815 5816 5816 5816 5817 5817 5817 5817 5817 5816 5817 5817 5817
5838 5836 5834 5832 5830 5828 5826 5824 5823 5821 5820 5819 5818 5816 5815 5814 5813 5812 5812 5811 5810 5809 5809 5808 5808 5808 5808 5808 5808 5808 5809 5809 5809 5809 5808 5808 5809 5809
5832 5829 5828 5825 5824 5821 5819 5818 5816 5814 5812 5811 5810 5808 5807 5806 5805 5804 5803 5802 5802 5801 5800 5800 5799 5799 5799 5799 5799 5800 5800 5800 5800 5800 5800 5800 5801 5801
5825 5823 5820 5818 5816 5814 5812 5810 5808 5806 5805 5803 5801 5800 5799 5798 5796 5795 5794 5793 5792 5792 5791 5790 5790 5790 5790 5790 5791 5791 5791 5791 5792 5792 5792 5792 5792 5793
5817 5815 5813 5811 5809 5807 5805 5803 5801 5798 5797 5795 5793 5792 5790 5789 5787 5786 5785 5784 5783 5782 5781 5781 5781 5780 5781 5781 5781 5782 5782 5782 5782 5783 5783 5783 5784 5784
5810 5808 5805 5803 5801 5799 5797 5795 5792 5790 5788 5786 5785 5783 5781 5780 5778 5777 5776 5775 5773 5772 5772 5772 5771 5771 5771 5771 5772 5772 5772 5772 5773 5773 5774 5774 5775 5776
5802 5800 5798 5796 5794 5791 5789 5786 5784 5782 5780 5778 5777 5775 5773 5771 5769 5768 5767 5766 5764 5764 5763 5762 5761 5761 5761 5761 5762 5762 5762 5763 5763 5764 5765 5765 5766 5767
5794 5792 5790 5788 5785 5783 5780 5778 5776 5774 5772 5770 5768 5766 5764 5762 5761 5759 5757 5756 5755 5754 5753 5753 5752 5751 5751 5751 5752 5752 5753 5753 5754 5755 5755 5756 5757 5758
5786 5784 5782 5780 5777 5775 5772 5770 5768 5765 5763 5761 5759 5757 5755 5753 5751 5750 5748 5747 5745 5744 5743 5743 5742 5742 5742 5742 5742 5743 5743 5744 5744 5745 5746 5746 5747 5748
5778 5776 5774 5771 5769 5766 5764 5762 5759 5757 5755 5752 5750 5748 5746 5744 5742 5740 5739 5737 5736 5735 5733 5733 5733 5733 5733 5733 5733 5733 5733 5734 5735 5735 5736 5737 5738 5739
5769 5767 5765 5762 5760 5757 5755 5753 5751 5749 5746 5743 5741 5739 5737 5735 5732 5731 5729 5728 5726 5725 5724 5723 5723 5722 5723 5723 5723 5723 5724 5724 5725 5726 5727 5728 5728 5729
5760 5757 5755 5753 5751 5748 5746 5744 5742 5739 5737 5734 5732 5729 5727 5725 5723 5721 5719 5718 5716 5715 5714 5713 5712 5712 5712 5713 5713 5713 5714 5715 5715 5716 5717 5718 5719 5720
5750 5748 5746 5744 5741 5739 5737 5734 5732 5729 5727 5725 5722 5720 5718 5715 5713 5711 5709 5708 5706 5705 5704 5703 5702 5702 5702 5703 5703 5704 5704 5705 5706 5707 5708 5709 5710 5711
5740 5738 5736 5734 5731 5729 5727 5724 5722 5719 5717 5715 5712 5710 5708 5705 5703 5701 5700 5698 5697 5695 5694 5693 5692 5692 5692 5693 5693 5694 5694 5695 5697 5698 5699 5700 5701 5702
5730 5728 5726 5723 5721 5719 5717 5714 5712 5710 5707 5705 5702 5700 5697 5695 5694 5692 5690 5689 5687 5686 5685 5683 5682 5682 5682 5682 5683 5684 5685 5686 5688 5689 5690 5691 5692 5693
5720 5717 5715 5713 5711 5709 5707 5704 5702 5699 5697 5695 5692 5690 5688 5686 5684 5682 5680 5679 5677 5677 5675 5674 5673 5672 5673 5673 5674 5675 5676 5677 5678 5680 5681 5682 5683 5684
5710 5708 5705 5703 5701 5699 5696 5694 5692 5689 5687 5684 5682 5680 5678 5676 5675 5673 5671 5670 5668 5667 5666 5665 5664 5664 5663 5664 5665 5666 5667 5668 5669 5671 5672 5674 5675 5676
5700 5698 5695 5693 5691 5689 5686 5684 5682 5679 5677 5674 5672 5670 5668 5667 5665 5663 5662 5660 5659 5658 5657 5656 5656 5655 5655 5656 5657 5657 5658 5659 5660 5662 5663 5665 5666 5667
5690 5688 5686 5684 5681 5679 5677 5674 5672 5670 5667 5665 5663 5661 5659 5658 5656 5654 5653 5652 5650 5649 5648 5648 5647 5647 5648 5649 5649 5649 5650 5651 5652 5654 5655 5656 5658 5659
5681 5678 5676 5674 5671 5669 5667 5665 5663 5660 5658 5656 5654 5652 5650 5649 5647 5646 5644 5643 5642 5641 5640 5639 5639 5639 5640 5640 5641 5642 5642 5643 5644 5645 5647 5648 5649 5650
5671 5668 5666 5664 5662 5660 5658 5656 5654 5651 5649 5648 5645 5643 5641 5640 5639 5637 5636 5635 5634 5633 5632 5632 5632 5632 5632 5633 5633 5634 5635 5635 5636 5637 5638 5640 5641 5642
5661 5659 5657 5655 5653 5651 5649 5647 5645 5643 5641 5639 5637 5635 5633 5632 5631 5630 5628 5627 5626 5625 5625 5624 5624 5624 5625 5625 5626 5627 5627 5627 5628 5629 5631 5632 5633 5634